Location: *
(43.0833°N, 13.0500°E)
Time: 05:49:37
(UTC+00:00)

Cosmos 2056 Rocket - Pass Details

Date: 15 November 2019
Orbit: 742 x 800 km, 74.0° (Epoch: 10 December)

Event Time Altitude Azimuth Distance (km) Brightness Sun altitude
Rises 17:31:52 0° 345° (NNW) 3,194 6.8 -19.6°
Reaches altitude 10° 17:34:22 10° 353° (N) 2,269 5.9 -20.1°
Enters shadow 17:38:47 40° 51° (NE) 1,091 3.9 -20.9°
